Погода в Кирилловке

Россия / Московская область     55°38′45″N   37°57′28″E
темп.,
°C
ветер,
м/с
пор.,
м/с
влажн.,
%
обл.,
%
осадки,
мм/ч
давл.,
гПа
погр.,
м
27 сентября, пн
пн2700:00+9с41094100 0.5 1015707
03:00+9с4109198 0.8 1017633
06:00+7с4119462 0.0 1019454
09:00+8с41092100 0.1 1020644
12:00+9с4887100 0.1 1021847
15:00+11с598083 0.1 1022847
18:00+10с51084100 0.1 1023889
21:00+9ссв4989100 0.3 1024875
28 сентября, вт
вт2800:00+8ссв5888100 0.2 10241086
03:00+7св4887100 0.4 1026752
06:00+6св4883100 0.1 1028686
09:00+6св4885100 0.1 1029772
12:00+8всв4670100 0.1 10311035
15:00+9всв356182 0.1 10321104
18:00+7всв227046 0.0 103324
21:00+5св23765 0.0 103477
29 сентября, ср
ср2900:00+4св22792 0.0 103565
03:00+3с22791 0.0 103649
06:00+3с23815 0.0 103683
09:00+6с24685 0.0 1036271
12:00+10ссв235316 0.0 1036894
15:00+12ссв235116 0.0 10351217
18:00+10с3568100 0.0 1035495
21:00+9ссв2575100 0.0 1035221
30 сентября, чт
чт3000:00+8ссв2372100 0.0 1035126
03:00+8ссв2370100 0.0 1036123
06:00+8ссв2370100 0.0 1036109
09:00+9ссв1271100 0.0 1036178
12:00+11сз006062 0.0 1036549
15:00+13зсз115126 0.0 10361211
18:00+11зсз115857 0.0 103510
21:00+10юз226277 0.0 103550
1 октября, пт
пт100:00+9зюз236573 0.0 1036107
03:00+8зюз236968 0.0 1036111
06:00+7з237436 0.0 1036104
09:00+9з22665 0.0 1036259
12:00+12зюз22535 0.0 1036860
15:00+13юз22470 0.0 10351160
18:00+11юз12570 0.0 103437
21:00+9юз22650 0.0 103538